Location: Beulah
(33.1426°N, 83.0557°W)
Time: 03:36:10
(UTC+00:00)

Envisat - Pass Details

Date: 30 November 2021
Orbit: 764 x 766 km, 98.2° (Epoch: 23 January)

Event Time Altitude Azimuth Distance (km) Brightness Sun altitude
Rises 11:24:16 0° 357° (N) 3,237 6.0 -11.0°
Reaches altitude 10° 11:26:56 10° 344° (NNW) 2,306 5.1 -10.5°
Maximum altitude 11:30:59 25° 291° (WNW) 1,527 4.0 -9.7°
Drops below altitude 10° 11:35:00 10° 238° (WSW) 2,295 5.1 -8.9°
Sets 11:37:40 0° 225° (SW) 3,217 6.0 -8.4°
